Weather History for Spirit of St Louis, MO

Change the Weather History Date:

Sunday, March 31, 2013

  Actual Average Record
Temperature  
Mean Temperature 57 °F -  
Max Temperature 69 °F 61 °F 80 °F (2006)
Min Temperature 46 °F 38 °F 25 °F (2003)
Degree Days  
Heating Degree Days 8    
Growing Degree Days 7 (Base 50)    
Moisture  
Dew Point 43 °F    
Average Humidity 73    
Maximum Humidity 100    
Minimum Humidity 27    
Precipitation  
Precipitation 0.01 in - - ()
Sea Level Pressure  
Sea Level Pressure 29.89 in    
Wind  
Wind Speed 3 mph (WNW)    
Max Wind Speed 14 mph    
Max Gust Speed 24 mph    
Visibility 6 miles    
Events      
Averages and records for this station are not official NWS values.
T = Trace of Precipitation, MM = Missing Value Source: NWS Daily Summary

Daily Weather History Graph

Daily Weather History Graph

Search for Another Location

Airport:

Trip Planner

Search our weather history database for the weather conditions in past years. The results will help you decide how hot, cold, wet, or windy it might be!

Date:

Astronomy

Mar. 31, 2013 Rise Set
Actual Time 6:48 AM CDT 7:25 PM CDT
Civil Twilight 6:21 AM CDT 7:52 PM CDT
Nautical Twilight 5:50 AM CDT 8:23 PM CDT
Astronomical Twilight 5:17 AM CDT 8:56 PM CDT
Moon No Moon Rise 9:39 AM CDT (3/31)
Length of Visible Light 13h 30m
Length of Day
12h 36m
Waning Gibbous, 77% of the Moon is Illuminated
Mar 31
Waning Gibbous
Apr 2
Last Quarter
Apr 10
New
Apr 18
First Quarter
Apr 25
Full

Hourly Weather History & Observations

Time (CDT) Temp. Dew Point Humidity Pressure Visibility Wind Dir Wind Speed Gust Speed Precip Events Conditions
12:06 AM 46.4 °F 46.4 °F 100% 29.92 in 1.8 mi Calm Calm - N/A   Overcast
12:16 AM 46.4 °F 46.4 °F 100% 29.91 in 2.0 mi Calm Calm - N/A   Overcast
12:26 AM 46.4 °F 44.6 °F 93% 29.91 in 1.5 mi Calm Calm - N/A   Overcast
12:41 AM 46.4 °F 44.6 °F 93% 29.91 in 1.5 mi Calm Calm - N/A   Overcast
12:51 AM 46.4 °F 44.6 °F 93% 29.91 in 1.0 mi Calm Calm - N/A   Overcast
12:54 AM 46.9 °F 45.0 °F 93% 29.91 in 1.0 mi Calm Calm - N/A   Overcast
1:43 AM 48.2 °F 46.4 °F 93% 29.90 in 3.0 mi Calm Calm - N/A   Overcast
1:54 AM 48.0 °F 46.0 °F 93% 29.90 in 2.5 mi Calm Calm - N/A   Overcast
2:09 AM 48.2 °F 46.4 °F 93% 29.89 in 4.0 mi SW 3.5 mph - N/A   Overcast
2:49 AM 48.2 °F 46.4 °F 93% 29.89 in 5.0 mi WSW 4.6 mph - N/A   Overcast
2:54 AM 48.0 °F 46.0 °F 93% 29.90 in 5.0 mi WSW 5.8 mph - N/A   Overcast
3:31 AM 48.2 °F 46.4 °F 93% 29.88 in 6.0 mi WSW 5.8 mph - N/A   Overcast
3:54 AM 48.9 °F 46.9 °F 93% 29.88 in 6.0 mi WSW 5.8 mph - N/A   Overcast
4:39 AM 48.2 °F 46.4 °F 93% 29.89 in 5.0 mi WNW 5.8 mph - N/A   Overcast
4:54 AM 48.9 °F 46.0 °F 90% 29.89 in 4.0 mi WNW 5.8 mph - N/A   Overcast
5:41 AM 48.2 °F 44.6 °F 87% 29.88 in 5.0 mi Calm Calm - N/A   Mostly Cloudy
5:54 AM 46.9 °F 45.0 °F 93% 29.90 in 5.0 mi West 3.5 mph - N/A   Mostly Cloudy
6:54 AM 48.0 °F 46.0 °F 93% 29.91 in 5.0 mi West 3.5 mph - N/A   Overcast
7:54 AM 48.0 °F 45.0 °F 89% 29.92 in 3.0 mi WNW 4.6 mph - N/A   Overcast
8:54 AM 50.0 °F 46.9 °F 89% 29.92 in 3.0 mi Calm Calm - N/A   Scattered Clouds
9:54 AM 54.0 °F 48.9 °F 83% 29.91 in 6.0 mi Variable 3.5 mph - N/A   Haze
10:54 AM 60.1 °F 48.0 °F 64% 29.89 in 10.0 mi NNE 3.5 mph - N/A   Scattered Clouds
11:54 AM 64.0 °F 45.0 °F 50% 29.87 in 10.0 mi NW 10.4 mph - N/A   Scattered Clouds
12:54 PM 64.9 °F 43.0 °F 45% 29.88 in 10.0 mi NNW 6.9 mph - 0.01 in   Scattered Clouds
1:54 PM 66.9 °F 37.0 °F 33% 29.87 in 10.0 mi WNW 12.7 mph - N/A   Clear
2:54 PM 68.0 °F 34.0 °F 28% 29.86 in 10.0 mi NW 12.7 mph 21.9 mph N/A   Scattered Clouds
3:54 PM 66.9 °F 33.1 °F 28% 29.85 in 10.0 mi NW 13.8 mph 24.2 mph N/A   Mostly Cloudy
4:54 PM 68.0 °F 33.1 °F 27% 29.84 in 10.0 mi West 12.7 mph - N/A   Scattered Clouds
5:54 PM 64.9 °F 35.1 °F 33% 29.86 in 10.0 mi WNW 13.8 mph 21.9 mph N/A   Mostly Cloudy
6:54 PM 62.1 °F 36.0 °F 38% 29.86 in 10.0 mi WNW 11.5 mph - N/A   Mostly Cloudy
7:54 PM 61.0 °F 39.9 °F 46% 29.88 in 10.0 mi NW 9.2 mph - N/A   Overcast
8:54 PM 59.0 °F 37.9 °F 46% 29.91 in 10.0 mi NW 9.2 mph - N/A   Overcast
9:54 PM 55.0 °F 37.0 °F 51% 29.93 in 10.0 mi West 5.8 mph - N/A   Partly Cloudy
10:54 PM 48.9 °F 35.1 °F 59% 29.94 in 10.0 mi West 4.6 mph - N/A   Clear
11:54 PM 48.9 °F 33.1 °F 54% 29.95 in 10.0 mi Calm Calm - N/A   Clear